Regional Weather Roundup
Issued by NWS

Home | Current Version | Previous Version | Graphics & Text | Print | Product List | Glossary On
Versions: 1 2 3 4 5 6 7 8 9 10 11 12 13 14 15 16 17 18 19 20 21 22 23 24 25 26 27 28 29 30 31 32 33 34 35 36 37 38 39 40 41 42 43 44 45 46 47 48 49 50
288
ASUS45 KTFX 180910
RWRMT
MONTANA REGIONAL WEATHER ROUNDUP
NATIONAL WEATHER SERVICE GREAT FALLS MT
200 AM MST MON DEC 18 2017

NOTE: "FAIR" INDICATES FEW OR NO CLOUDS BELOW 12000 FEET WITH NO
SIGNIFICANT WEATHER AND/OR OBSTRUCTIONS TO VISIBILITY.

MTZ001>007-043-181000-
WEST OF THE DIVIDE

CITY           SKY/WX    TMP DP  RH WIND       PRES   REMARKS
KALISPELL      FLURRIES  35  32  88 S13       29.79F WCI  26
MISSOULA       CLOUDY    27  22  81 W3        29.90S
BUTTE          CLOUDY    36  25  64 SW6       29.88F WCI  31
MULLAN PASS    SNOW      29  26  89 W8        29.81S VSB 1/2 WCI  21
ANACONDA         N/A     36  23  60 SE10G20   29.84F WCI  28
DEER LODGE       N/A     37  27  65 S10G16    29.84F WCI  30
EUREKA           N/A     34  30  86 MISG      29.75S
HAMILTON         N/A     37  30  75 SE18      29.89F WCI  27
LIBBY            N/A     39  34  81 SE9       29.76S
RONAN            N/A     37  32  81 SE14      29.83S WCI  29
$$

MTZ008-052>055-181000-
SOUTHWEST MONTANA

CITY           SKY/WX    TMP DP  RH WIND       PRES   REMARKS
BOZEMAN        CLOUDY    26  21  81 CALM      29.88F
DILLON         CLOUDY    28  20  71 SW12      29.96S WCI  18
W YELLOWSTONE  CLOUDY    18  14  86 SW12G20   30.10S WCI   5
ENNIS          CLOUDY    25  19  80 S30G45    30.02R HAZE    WCI   8
THREE FORKS      N/A     32  25  76 SW33      29.86F WCI  17
TWIN BRIDGES     N/A     33  20  59 CALM      29.94F
$$

MTZ009-010-012-014-046-048-049-054-181000-
EAST SLOPES AND CENTRAL MONTANA

CITY           SKY/WX    TMP DP  RH WIND       PRES   REMARKS
CUT BANK       FAIR      36  27  69 W23G32    29.59R WCI  24
GREAT FALLS    FAIR      42  25  50 SW31G44   29.65F
MALMSTROM AFB  MOCLDY    43  27  54 SW35G45   29.65F
HELENA         FAIR      28  22  78 W5        29.78F
BOWMANS CRNR   MOCLDY    35  24  66 S28G33    29.66R WCI  21
CHOTEAU          N/A     43  25  49 SW9G21    29.63S
FAIRFIELD      MOCLDY    37  24  59 S23G35    29.61F WCI  26
POWER          MOCLDY    37  25  60 SW24G35   29.62F WCI  26
RAYNESFORD     MOCLDY    44  28  53 SW35G44   29.65F
ULM            MOCLDY    43  26  51 SW23G36   29.69F
$$

MTZ011-013-016-021-045-047-050-051-181000-
NORTH CENTRAL MONTANA

CITY           SKY/WX    TMP DP  RH WIND       PRES   REMARKS
HAVRE          CLOUDY    40  27  59 W12       29.60F
LEWISTOWN      CLOUDY    42  26  53 SW17      29.65F
N BAR RANCH    CLOUDY    34  19  55 SE6       29.66F WCI  29
CHINOOK          N/A     41  30  65 W7        29.61F
DENTON         CLOUDY    43  26  51 SW21      29.61F
GEYSER         CLOUDY    43  27  53 W30G48    29.60S
GRASS RANGE    CLOUDY    40  25  53 W12       29.61F
STANFORD       CLOUDY    43  28  56 W26G41    29.62F
WINIFRED       CLOUDY    42  25  50 SW15G24   29.62F
$$

MTZ017>020-022>027-061-062-181000-
NORTHEAST MONTANA

CITY           SKY/WX    TMP DP  RH WIND       PRES   REMARKS
GLASGOW        FAIR      31  22  69 NW6       29.62F WCI  25
GLENDIVE       FAIR      33  21  61 SW9       29.68F WCI  25
JORDAN           N/A     31  21  66 W5        29.66F
SIDNEY         FAIR      31  23  72 S10       29.64F WCI  22
WOLF POINT     FAIR      32  22  66 SW7       29.63F WCI  26
MALTA          CLOUDY    34  28  80 W5        29.62S
PLENTYWOOD       N/A     30  23  74 CALM      29.57S
POPLAR           N/A     30  21  69 CALM      29.63F
SCOBEY           N/A     30  17  58 SW5       29.59F
$$

MTZ028>42-056>058-181000-
SOUTHCENTRAL AND SOUTHEAST MONTANA

CITY           SKY/WX    TMP DP  RH WIND       PRES   REMARKS
BAKER          FAIR      30  23  75 W14       29.71F WCI  19
BILLINGS       FAIR      33  22  63 SW26G35   29.74F WCI  20
LIVINGSTON     HAZE      31  24  75 SW61G78   29.70F VSB 3/4 WCI  11
MILES CITY     FAIR      32  23  69 SW12      29.72F WCI  23
BIG TIMBER     PTCLDY    36  23  60 W38G46    29.76F WCI  21
FORSYTH          N/A     37  23  56 W9        29.72F WCI  31
HARLOWTON      CLOUDY    36  26  68 W30G38    29.71R WCI  23
LAUREL           N/A     32  23  69 SW22G29   29.77F WCI  19
ROUNDUP          N/A     37  21  52 S9        29.65F WCI  30
$$

REGIONAL REPORTS...DAKOTAS

CITY           SKY/WX    TMP DP  RH WIND       PRES   REMARKS
WILLISTON      FAIR      36  22  56 SW10      29.60F WCI  28
MINOT          CLOUDY    37  24  59 SW14      29.58F WCI  28
DICKINSON      FAIR      32  21  64 W14       29.66R WCI  22
BEACH          FAIR      32  21  64 W13G18    29.70F WCI  22
CROSBY         FAIR      32  27  80 SW13      29.57S WCI  22
TIOGA          FAIR      34  23  64 SW14      29.58F WCI  24
BISMARCK       FAIR      29  22  75 SW5       29.69F
GRAND FORKS    FAIR      27  25  92 S13       29.64F WCI  16
FARGO          CLOUDY    33  30  88 S13G22    29.70F WCI  24
BUFFALO SD       N/A     30  21  69 W13       29.67F WCI  20
RAPID CITY     FAIR      30  19  63 SW7       29.82F WCI  23
$$

REGIONAL REPORTS...WYOMING/IDAHO/WASHINGTON

CITY           SKY/WX    TMP DP  RH WIND       PRES   REMARKS
GILLETTE       FAIR      33  19  56 SW21      29.80F WCI  21
SHERIDAN       FAIR      14  12  92 N6        29.77F WCI   5
BUFFALO WY     FAIR      32  14  47 SW9       29.79F WCI  24
CODY           FAIR      34  19  54 W21G26    29.88S WCI  22
YELLOWSTONE LA   N/A     14  11  87 CALM      30.07S
IDAHO FALLS    CLOUDY    23  20  88 CALM      30.22S
SALMON         CLOUDY    23  17  78 E3        30.11F
BOISE          CLOUDY    37  26  64 CALM      30.21F
SPOKANE        CLOUDY    37  35  92 S20G28    29.86R WCI  27
$$

REGIONAL REPORTS...ALBERTA

CITY           SKY/WX    TMP DP  RH WIND       PRES   REMARKS
EDMONTON       CLEAR     28  14  54 W9        29.52R WCI  20
CALGARY        CLOUDY    32  16  51 N9        29.53R WCI  24
LETHBRIDGE     MOCLDY    36  23  60 SW14      29.52F WCI  27
MEDICINE HAT   CLOUDY    37  27  65 SW9       29.51F WCI  31
$$

REGIONAL REPORTS...SASKATCHEWAN

CITY           SKY/WX    TMP DP  RH WIND       PRES   REMARKS
SWIFT CURRENT  CLOUDY    32  25  74 W13       29.52S WCI  22
REGINA         PTCLDY    27  23  86 SW8       29.50S WCI  18
SASKATOON      PTCLDY    21  18  86 SW10      29.48R WCI  10
$$




USA.gov is the U.S. government's official web portal to all federal, state and local government web resources and services.